Location: Terre Du Lac
(37.9120°N, 90.6250°W)
Time: 02:07:59
(UTC-05:00)

HST - Visible Passes

Search period start: 26 July 2014 00:00
Search period end: 05 August 2014 00:00
Orbit: 547 x 552 km, 28.5° (Epoch: 25 July)

Date Brightness Start Highest point End Pass type
(mag) Time Alt. Az. Time Alt. Az. Time Alt. Az.
26 Jul 2.7 21:28:44 10° SW 21:31:20 16° SSW 21:32:45 14° S visible
27 Jul 2.9 21:22:15 10° SW 21:24:23 14° SSW 21:26:08 11° S visible
28 Jul 3.1 21:16:06 10° SW 21:17:25 11° SSW 21:18:44 10° S visible
